User: anonymous   Login
Location: Vancouver
(49.2500°N, 123.1330°W)
Time: 21:37:47
(UTC-08:00)
Language:

SO-67 - Orbit

View from above orbital plane
View from above orbital plane
View from above satellite
View from above satellite

Ground track
Ground track

The orbit data is extracted from the following two-line orbital elements,

1 35870U 09049F   16039.90029030  .00011753  00000-0  23861-3 0  9997
2 35870  97.1263  56.6996 0003360  77.2444  42.5180 15.46488121356648
Epoch (UTC): 08 February 2016 21:36:25
Eccentricity: 0.0003360
inclination: 97.1263°
perigee height: 425 km
apogee height: 429 km
right ascension of ascending node: 56.6996°
argument of perigee: 77.2444°
revolutions per day: 15.46488121
mean anomaly at epoch: 42.5180°
orbit number at epoch: 35664

The dashed part of the orbit path shows where the satellite is in the earth's shadow,  

DLR